TimeCDT,TemperatureF,Dew PointF,Humidity,Sea Level PressureIn,VisibilityMPH,Wind Direction,Wind SpeedMPH,Gust SpeedMPH,PrecipitationIn,Events,Conditions,WindDirDegrees,DateUTC
12:55 AM,71.6,55.4,57,29.94,10.0,SSW,8.1,-,N/A,,Partly Cloudy,200,2012-09-12 05:55:00
1:55 AM,71.6,55.4,57,29.96,10.0,Variable,4.6,-,N/A,,Partly Cloudy,0,2012-09-12 06:55:00
2:55 AM,71.6,55.4,57,29.96,10.0,South,6.9,20.7,N/A,,Partly Cloudy,180,2012-09-12 07:55:00
3:55 AM,69.8,55.4,60,29.96,10.0,SSW,10.4,20.7,N/A,,Partly Cloudy,200,2012-09-12 08:55:00
4:55 AM,68.0,55.4,64,29.97,10.0,Variable,3.5,-,N/A,,Partly Cloudy,0,2012-09-12 09:55:00
5:55 AM,68.0,55.4,64,29.99,10.0,WSW,3.5,-,N/A,,Partly Cloudy,240,2012-09-12 10:55:00
6:55 AM,68.0,57.2,68,30.01,10.0,SW,6.9,-,N/A,,Scattered Clouds,220,2012-09-12 11:55:00
7:55 AM,68.0,57.2,68,30.04,10.0,WSW,9.2,-,N/A,,Scattered Clouds,250,2012-09-12 12:55:00
8:55 AM,71.6,59.0,64,30.05,10.0,WSW,8.1,-,N/A,,Mostly Cloudy,240,2012-09-12 13:55:00
9:55 AM,73.4,59.0,61,30.06,10.0,WNW,11.5,-,N/A,,Mostly Cloudy,290,2012-09-12 14:55:00
10:55 AM,75.2,59.0,57,30.07,10.0,West,5.8,-,N/A,,Mostly Cloudy,260,2012-09-12 15:55:00
11:55 AM,75.2,57.2,53,30.08,10.0,NNW,6.9,-,N/A,,Mostly Cloudy,330,2012-09-12 16:55:00
12:55 PM,77.0,55.4,47,30.08,10.0,Variable,5.8,-,N/A,,Mostly Cloudy,0,2012-09-12 17:55:00
1:55 PM,77.0,50.0,39,30.10,10.0,NW,12.7,-,N/A,,Mostly Cloudy,310,2012-09-12 18:55:00
2:55 PM,73.4,46.4,38,30.11,10.0,NNW,12.7,19.6,N/A,,Overcast,340,2012-09-12 19:55:00
3:55 PM,69.8,39.2,33,30.11,10.0,North,12.7,-,N/A,,Overcast,350,2012-09-12 20:55:00
4:55 PM,68.0,42.8,40,30.14,10.0,NW,13.8,18.4,N/A,,Overcast,320,2012-09-12 21:55:00
5:55 PM,64.4,41.0,42,30.17,10.0,NNW,13.8,20.7,N/A,,Overcast,330,2012-09-12 22:55:00
6:55 PM,62.6,41.0,45,30.17,10.0,NNW,10.4,-,N/A,,Overcast,340,2012-09-12 23:55:00
7:39 PM,60.8,46.4,59,30.19,10.0,NNW,10.4,-,N/A,Rain,Light Rain Showers,330,2012-09-13 00:39:00
7:55 PM,57.2,50.0,77,30.19,10.0,NNW,6.9,-,N/A,Rain,Rain Showers,330,2012-09-13 00:55:00
8:55 PM,53.6,51.8,94,30.21,10.0,North,6.9,-,N/A,,Light Drizzle,350,2012-09-13 01:55:00
9:55 PM,53.6,51.8,94,30.22,10.0,North,6.9,-,0.03,Rain,Rain Showers,360,2012-09-13 02:55:00
10:03 PM,51.8,51.8,100,30.24,5.0,WNW,6.9,-,N/A,Rain,Rain,290,2012-09-13 03:03:00
10:55 PM,51.3,50.2,96,30.24,4.0,North,5.8,-,0.14,Rain,Heavy Rain,350,2012-09-13 03:55:00
11:14 PM,51.8,50.0,94,30.24,2.5,Calm,Calm,-,N/A,Rain,Heavy Rain,0,2012-09-13 04:14:00
11:19 PM,51.8,50.0,94,30.25,3.0,NW,5.8,-,N/A,Rain,Rain,320,2012-09-13 04:19:00
11:55 PM,51.1,50.0,96,30.26,5.0,NW,4.6,-,0.19,Rain,Rain,310,2012-09-13 04:55:00